Weather History for Gulkana, AK

Change the Weather History Date:

Friday, February 15, 2013

  Actual Average Record
Temperature  
Mean Temperature 20 °F -  
Max Temperature 24 °F 11 °F 43 °F (1993)
Min Temperature 15 °F -8 °F -45 °F (1954)
Degree Days  
Heating Degree Days 46    
Moisture  
Dew Point 17 °F    
Average Humidity 86    
Maximum Humidity 96    
Minimum Humidity 59    
Precipitation  
Precipitation 0.04 in - - ()
Snow  
Snow 0.00 in - - ()
Snow Depth 7.00 in    
Sea Level Pressure  
Sea Level Pressure 29.62 in    
Wind  
Wind Speed 3 mph (North)    
Max Wind Speed 9 mph    
Max Gust Speed -    
Visibility 6 miles    
Events Snow    
Averages and records for this station are not official NWS values.
T = Trace of Precipitation, MM = Missing Value Source: NWS Daily Summary

Daily Weather History Graph

Daily Weather History Graph

Search for Another Location

Airport:

Trip Planner

Search our weather history database for the weather conditions in past years. The results will help you decide how hot, cold, wet, or windy it might be!

Date:

Astronomy

Feb. 15, 2013 Rise Set
Actual Time 8:26 AM AKST 5:26 PM AKST
Civil Twilight 7:39 AM AKST 6:13 PM AKST
Nautical Twilight 6:47 AM AKST 7:05 PM AKST
Astronomical Twilight 5:55 AM AKST 7:57 PM AKST
Moon 9:08 AM AKST (2/15) 12:30 AM AKST (2/15)
Length of Visible Light 10h 34m
Length of Day
8h 59m
Waxing Crescent, 31% of the Moon is Illuminated
Feb 15
Waxing Crescent
Feb 17
First Quarter
Feb 25
Full
Mar 4
Last Quarter
Mar 11
New

Hourly Weather History & Observations

Time (AKST) Temp. Windchill Dew Point Humidity Pressure Visibility Wind Dir Wind Speed Gust Speed Precip Events Conditions
12:03 AM 21.0 °F - 19.9 °F 96% 29.41 in 1.8 mi Calm Calm - N/A   Overcast
12:21 AM 21.0 °F 16.2 °F 19.9 °F 96% 29.42 in 2.0 mi NE 3.5 mph - N/A   Overcast
12:31 AM 21.0 °F 13.4 °F 19.9 °F 96% 29.42 in 6.0 mi North 5.8 mph - N/A   Overcast
12:39 AM 19.9 °F 9.3 °F 16.0 °F 85% 29.42 in 10.0 mi North 9.2 mph - N/A   Overcast
12:53 AM 19.9 °F 11.1 °F 12.9 °F 74% 29.53 in 10.0 mi North 6.9 mph - N/A   Overcast
1:53 AM 18.0 °F 8.7 °F 10.0 °F 71% 29.55 in 10.0 mi North 6.9 mph - N/A   Overcast
3:53 AM 17.1 °F 8.7 °F 9.0 °F 71% 29.58 in 10.0 mi North 5.8 mph - N/A   Overcast
4:53 AM 16.0 °F 10.4 °F 10.9 °F 81% 29.58 in 5.0 mi NNW 3.5 mph - 0.00 in Snow Light Snow
5:53 AM 17.1 °F 10.0 °F 12.9 °F 84% 29.59 in 5.0 mi Variable 4.6 mph - 0.00 in Snow Light Snow
6:09 AM 17.1 °F 10.0 °F 12.9 °F 84% 29.48 in 4.0 mi North 4.6 mph - 0.00 in Snow Light Snow
6:53 AM 17.1 °F 11.7 °F 12.9 °F 84% 29.60 in 10.0 mi NNW 3.5 mph - 0.00 in   Overcast
7:53 AM 17.1 °F 10.0 °F 12.9 °F 84% 29.62 in 3.0 mi North 4.6 mph - 0.01 in Snow Light Snow
8:14 AM 17.1 °F 10.0 °F 14.0 °F 88% 29.50 in 1.0 mi Variable 4.6 mph - 0.01 in Snow Light Snow
8:53 AM 18.0 °F - 14.0 °F 84% 29.62 in 2.0 mi Calm Calm - 0.02 in Snow Light Snow
9:53 AM 19.0 °F - 15.1 °F 85% 29.65 in 2.0 mi Calm Calm - 0.01 in Snow Light Snow
10:53 AM 19.0 °F 13.9 °F 16.0 °F 88% 29.66 in 2.0 mi Variable 3.5 mph - 0.01 in Snow Light Snow
11:53 AM 19.9 °F 12.1 °F 17.1 °F 89% 29.68 in 2.0 mi ESE 5.8 mph - 0.01 in Snow Light Snow
12:25 PM 19.9 °F - 17.1 °F 89% 29.57 in 3.0 mi Calm Calm - 0.00 in Snow Light Snow
12:53 PM 21.0 °F 16.2 °F 18.0 °F 88% 29.68 in 2.0 mi ESE 3.5 mph - 0.01 in Snow Light Snow
1:53 PM 23.0 °F - 19.9 °F 88% 29.69 in 5.0 mi Calm Calm - 0.01 in Snow Light Snow
2:53 PM 23.0 °F - 19.9 °F 88% 29.69 in 5.0 mi Calm Calm - 0.00 in Snow Light Snow
3:00 PM 23.0 °F - 19.9 °F 88% 29.58 in 5.0 mi Calm Calm - 0.00 in Snow Light Snow
3:53 PM 23.0 °F - 21.0 °F 92% 29.70 in 1.5 mi Calm Calm - 0.01 in Snow Light Snow
4:53 PM 24.1 °F - 21.9 °F 91% 29.71 in 1.0 mi Calm Calm - 0.01 in Snow Light Snow
5:53 PM 24.1 °F - 21.9 °F 91% 29.72 in 1.0 mi Calm Calm - 0.01 in Snow Light Snow
6:46 PM 24.1 °F - 21.9 °F 91% 29.61 in 5.0 mi Calm Calm - 0.00 in Snow Light Snow
6:53 PM 24.1 °F - 21.9 °F 91% 29.73 in 5.0 mi Calm Calm - 0.01 in Snow Light Snow
7:53 PM 24.1 °F - 21.9 °F 91% 29.74 in 6.0 mi Calm Calm - 0.00 in Snow Light Snow
8:53 PM 24.1 °F - 21.0 °F 88% 29.75 in 10.0 mi Calm Calm - 0.00 in   Overcast
9:26 PM 24.1 °F 17.0 °F 21.0 °F 88% 29.65 in 10.0 mi North 5.8 mph - N/A   Overcast
9:36 PM 24.1 °F 18.2 °F 19.9 °F 84% 29.65 in 10.0 mi NNW 4.6 mph - N/A   Overcast
9:53 PM 24.1 °F 17.0 °F 19.9 °F 84% 29.76 in 10.0 mi NNW 5.8 mph - N/A   Overcast
10:53 PM 23.0 °F 17.0 °F 19.9 °F 88% 29.78 in 10.0 mi NNW 4.6 mph - N/A   Overcast
11:53 PM 21.9 °F 17.2 °F 19.0 °F 89% 29.80 in 10.0 mi NW 3.5 mph - N/A   Overcast